| time (UTC) | temp F | wind direction | speed MPH | gust MPH | rain 1hr in | rain 24hr in | rain mn in | humidity % | barometer mb |
| 20260508130502 | 77 | 293 | 12.0 | 26.0 | 0.00 | 0.00 | 0.00 | 43 | 1007.6 |
| 20260508130002 | 77 | 281 | 10.0 | 20.0 | 0.00 | 0.00 | 0.00 | 42 | 1007.5 |
| 20260508125503 | 77 | 282 | 11.0 | 23.0 | 0.00 | 0.00 | 0.00 | 42 | 1007.5 |
| 20260508125002 | 77 | 298 | 12.0 | 22.0 | 0.00 | 0.00 | 0.00 | 42 | 1007.4 |
| 20260508124502 | 78 | 299 | 12.0 | 18.0 | 0.00 | 0.00 | 0.00 | 42 | 1007.4 |
| 20260508124002 | 78 | 290 | 11.0 | 20.0 | 0.00 | 0.00 | 0.00 | 41 | 1007.3 |
| 20260508123502 | 78 | 282 | 9.0 | 18.0 | 0.00 | 0.00 | 0.00 | 41 | 1007.4 |
| 20260508123002 | 78 | 282 | 12.0 | 20.0 | 0.00 | 0.00 | 0.00 | 41 | 1007.4 |
| 20260508122502 | 78 | 285 | 12.0 | 22.0 | 0.00 | 0.00 | 0.00 | 41 | 1007.4 |
| 20260508122003 | 78 | 297 | 12.0 | 22.0 | 0.00 | 0.00 | 0.00 | 41 | 1007.2 |
| 20260508121502 | 78 | 282 | 10.0 | 21.0 | 0.00 | 0.00 | 0.00 | 41 | 1007.2 |
| 20260508121003 | 78 | 276 | 12.0 | 24.0 | 0.00 | 0.00 | 0.00 | 41 | 1007.2 |
| 20260508120502 | 78 | 283 | 14.0 | 21.0 | 0.00 | 0.00 | 0.00 | 41 | 1007.1 |
| 20260508120003 | 78 | 288 | 13.0 | 23.0 | 0.00 | 0.00 | 0.00 | 41 | 1007.1 |
| 20260508115502 | 78 | 283 | 13.0 | 22.0 | 0.00 | 0.00 | 0.00 | 40 | 1007.0 |
| 20260508114003 | 77 | 291 | 13.0 | 22.0 | 0.00 | 0.00 | 0.00 | 42 | 1006.9 |
| 20260508113503 | 77 | 300 | 11.0 | 20.0 | 0.00 | 0.00 | 0.00 | 42 | 1007.0 |
| 20260508112503 | 77 | 298 | 13.0 | 22.0 | 0.00 | 0.00 | 0.00 | 42 | 1006.9 |
| 20260508112003 | 78 | 294 | 13.0 | 21.0 | 0.00 | 0.00 | 0.00 | 43 | 1006.9 |
| 20260508111503 | 78 | 291 | 12.0 | 21.0 | 0.00 | 0.00 | 0.00 | 42 | 1006.9 |
| 20260508111003 | 78 | 302 | 13.0 | 23.0 | 0.00 | 0.00 | 0.00 | 41 | 1006.9 |
| 20260508110502 | 78 | 298 | 12.0 | 21.0 | 0.00 | 0.00 | 0.00 | 42 | 1006.9 |
| 20260508110002 | 78 | 295 | 12.0 | 23.0 | 0.00 | 0.00 | 0.00 | 42 | 1006.9 |
| 20260508105002 | 78 | 286 | 13.0 | 22.0 | 0.00 | 0.00 | 0.00 | 40 | 1007.0 |
| 20260508103503 | 78 | 287 | 13.0 | 24.0 | 0.00 | 0.00 | 0.00 | 40 | 1006.9 |
| 20260508102002 | 78 | 287 | 14.0 | 25.0 | 0.00 | 0.00 | 0.00 | 40 | 1007.0 |
| 20260508101003 | 78 | 298 | 14.0 | 20.0 | 0.00 | 0.00 | 0.00 | 41 | 1007.2 |
| 20260508100503 | 78 | 297 | 15.0 | 25.0 | 0.00 | 0.00 | 0.00 | 40 | 1007.1 |
| 20260508100003 | 78 | 292 | 13.0 | 22.0 | 0.00 | 0.00 | 0.00 | 41 | 1007.2 |
| 20260508095502 | 78 | 298 | 13.0 | 20.0 | 0.00 | 0.00 | 0.00 | 40 | 1007.2 |
| 20260508095002 | 78 | 296 | 13.0 | 21.0 | 0.00 | 0.00 | 0.00 | 40 | 1007.2 |
| 20260508094503 | 78 | 292 | 12.0 | 23.0 | 0.00 | 0.00 | 0.00 | 41 | 1007.1 |
| 20260508094003 | 78 | 296 | 13.0 | 25.0 | 0.00 | 0.00 | 0.00 | 41 | 1007.1 |
| 20260508093503 | 78 | 304 | 12.0 | 23.0 | 0.00 | 0.00 | 0.00 | 41 | 1007.1 |
| 20260508092502 | 78 | 283 | 14.0 | 31.0 | 0.00 | 0.00 | 0.00 | 41 | 1007.1 |
| 20260508092003 | 78 | 285 | 14.0 | 21.0 | 0.00 | 0.00 | 0.00 | 42 | 1007.2 |
| 20260508091002 | 78 | 288 | 16.0 | 26.0 | 0.00 | 0.00 | 0.00 | 43 | 1007.2 |
| 20260508090003 | 78 | 289 | 15.0 | 24.0 | 0.00 | 0.00 | 0.00 | 42 | 1007.2 |
| 20260508085002 | 78 | 303 | 15.0 | 26.0 | 0.00 | 0.00 | 0.00 | 42 | 1007.2 |
| 20260508084003 | 78 | 296 | 14.0 | 28.0 | 0.00 | 0.00 | 0.00 | 42 | 1007.5 |
| 20260508083502 | 78 | 290 | 11.0 | 25.0 | 0.00 | 0.00 | 0.00 | 43 | 1007.5 |
| 20260508083002 | 78 | 292 | 12.0 | 21.0 | 0.00 | 0.00 | 0.00 | 43 | 1007.4 |
| 20260508082503 | 78 | 296 | 14.0 | 25.0 | 0.00 | 0.00 | 0.00 | 43 | 1007.5 |
| 20260508082003 | 78 | 304 | 12.0 | 22.0 | 0.00 | 0.00 | 0.00 | 43 | 1007.5 |
| 20260508081503 | 78 | 308 | 16.0 | 26.0 | 0.00 | 0.00 | 0.00 | 43 | 1007.5 |
| 20260508081003 | 78 | 294 | 12.0 | 23.0 | 0.00 | 0.00 | 0.00 | 43 | 1007.5 |
| 20260508080502 | 78 | 297 | 13.0 | 25.0 | 0.00 | 0.00 | 0.00 | 43 | 1007.5 |
| 20260508080003 | 79 | 308 | 16.0 | 28.0 | 0.00 | 0.00 | 0.00 | 42 | 1007.5 |
| 20260508075502 | 79 | 285 | 17.0 | 26.0 | 0.00 | 0.00 | 0.00 | 41 | 1007.5 |
| 20260508075003 | 79 | 286 | 15.0 | 26.0 | 0.00 | 0.00 | 0.00 | 42 | 1007.5 |
| 20260508074503 | 79 | 296 | 14.0 | 25.0 | 0.00 | 0.00 | 0.00 | 42 | 1007.8 |
| 20260508073503 | 79 | 275 | 13.0 | 23.0 | 0.00 | 0.00 | 0.00 | 41 | 1008.0 |
| 20260508073003 | 79 | 295 | 13.0 | 22.0 | 0.00 | 0.00 | 0.00 | 40 | 1007.9 |
| 20260508072503 | 80 | 286 | 15.0 | 23.0 | 0.00 | 0.00 | 0.00 | 39 | 1008.0 |
| 20260508072002 | 80 | 283 | 15.0 | 26.0 | 0.00 | 0.00 | 0.00 | 40 | 1007.9 |
| 20260508071002 | 80 | 280 | 12.0 | 22.0 | 0.00 | 0.00 | 0.00 | 39 | 1008.0 |
| 20260508070002 | 80 | 293 | 12.0 | 22.0 | 0.00 | 0.00 | 0.00 | 39 | 1007.9 |
| 20260508065503 | 80 | 296 | 12.0 | 23.0 | 0.00 | 0.00 | 0.00 | 38 | 1007.8 |
| 20260508065002 | 80 | 296 | 9.0 | 17.0 | 0.00 | 0.00 | 0.00 | 38 | 1007.7 |
| 20260508064502 | 81 | 279 | 12.0 | 17.0 | 0.00 | 0.00 | 0.00 | 38 | 1007.7 |
| 20260508064002 | 81 | 300 | 9.0 | 18.0 | 0.00 | 0.00 | 0.00 | 37 | 1007.7 |
| 20260508063502 | 81 | 291 | 10.0 | 20.0 | 0.00 | 0.00 | 0.00 | 37 | 1007.6 |
| 20260508063003 | 81 | 306 | 10.0 | 20.0 | 0.00 | 0.00 | 0.00 | 37 | 1007.5 |
| 20260508062504 | 81 | 300 | 9.0 | 16.0 | 0.00 | 0.00 | 0.00 | 36 | 1007.6 |
| 20260508062002 | 81 | 294 | 9.0 | 22.0 | 0.00 | 0.00 | 0.00 | 36 | 1007.5 |
| 20260508060502 | 82 | 290 | 10.0 | 23.0 | 0.00 | 0.00 | 0.00 | 35 | 1007.5 |
| 20260508060002 | 82 | 299 | 9.0 | 22.0 | 0.00 | 0.00 | 0.00 | 34 | 1007.5 |
| 20260508055503 | 82 | 306 | 12.0 | 23.0 | 0.00 | 0.00 | 0.00 | 34 | 1007.5 |
| 20260508055003 | 82 | 295 | 12.0 | 21.0 | 0.00 | 0.00 | 0.00 | 35 | 1007.5 |
| 20260508054502 | 83 | 300 | 10.0 | 21.0 | 0.00 | 0.00 | 0.00 | 34 | 1007.6 |
| 20260508054002 | 83 | 289 | 12.0 | 23.0 | 0.00 | 0.00 | 0.00 | 34 | 1007.5 |
| 20260508053503 | 83 | 301 | 12.0 | 24.0 | 0.00 | 0.00 | 0.00 | 34 | 1007.5 |
| 20260508053003 | 83 | 296 | 8.0 | 17.0 | 0.00 | 0.00 | 0.00 | 34 | 1007.5 |
| 20260508052002 | 83 | 313 | 9.0 | 21.0 | 0.00 | 0.00 | 0.00 | 33 | 1007.4 |
| 20260508051503 | 84 | 300 | 12.0 | 20.0 | 0.00 | 0.00 | 0.00 | 33 | 1007.4 |
| 20260508051002 | 84 | 306 | 10.0 | 23.0 | 0.00 | 0.00 | 0.00 | 32 | 1007.4 |
| 20260508050503 | 84 | 294 | 10.0 | 20.0 | 0.00 | 0.00 | 0.00 | 32 | 1007.4 |
| 20260508050003 | 84 | 297 | 12.0 | 20.0 | 0.00 | 0.00 | 0.00 | 32 | 1007.4 |
| 20260508045503 | 85 | 298 | 9.0 | 18.0 | 0.00 | 0.00 | 0.00 | 31 | 1007.4 |
| 20260508045002 | 85 | 284 | 9.0 | 20.0 | 0.00 | 0.00 | 0.00 | 31 | 1007.4 |
| 20260508044002 | 85 | 296 | 7.0 | 18.0 | 0.00 | 0.00 | 0.00 | 29 | 1007.4 |
| 20260508043502 | 85 | 295 | 8.0 | 14.0 | 0.00 | 0.00 | 0.00 | 29 | 1007.4 |
| 20260508043002 | 85 | 306 | 10.0 | 16.0 | 0.00 | 0.00 | 0.00 | 29 | 1007.4 |
| 20260508042503 | 85 | 297 | 7.0 | 18.0 | 0.00 | 0.00 | 0.00 | 28 | 1007.2 |
| 20260508042004 | 86 | 311 | 7.0 | 17.0 | 0.00 | 0.00 | 0.00 | 28 | 1007.0 |
| 20260508041503 | 86 | 306 | 7.0 | 14.0 | 0.00 | 0.00 | 0.00 | 28 | 1007.0 |
| 20260508041003 | 86 | 310 | 8.0 | 16.0 | 0.00 | 0.00 | 0.00 | 28 | 1006.9 |
| 20260508040502 | 86 | 300 | 9.0 | 14.0 | 0.00 | 0.00 | 0.00 | 27 | 1006.9 |
| 20260508040002 | 87 | 310 | 5.0 | 12.0 | 0.00 | 0.00 | 0.00 | 27 | 1006.9 |
| 20260508035003 | 88 | 312 | 8.0 | 16.0 | 0.00 | 0.00 | 0.00 | 23 | 1006.7 |
| 20260508034502 | 88 | 288 | 8.0 | 18.0 | 0.00 | 0.00 | 0.00 | 23 | 1006.6 |
| 20260508034003 | 89 | 294 | 9.0 | 17.0 | 0.00 | 0.00 | 0.00 | 22 | 1006.5 |
| 20260508033502 | 89 | 302 | 11.0 | 18.0 | 0.00 | 0.00 | 0.00 | 20 | 1006.4 |
| 20260508033003 | 89 | 300 | 7.0 | 21.0 | 0.00 | 0.00 | 0.00 | 20 | 1006.4 |
| 20260508032003 | 90 | 284 | 12.0 | 22.0 | 0.00 | 0.00 | 0.00 | 17 | 1006.4 |
| 20260508031503 | 90 | 291 | 11.0 | 22.0 | 0.00 | 0.00 | 0.00 | 17 | 1006.2 |
| 20260508031002 | 90 | 291 | 13.0 | 23.0 | 0.00 | 0.00 | 0.00 | 17 | 1006.2 |
| 20260508030503 | 91 | 308 | 12.0 | 20.0 | 0.00 | 0.00 | 0.00 | 16 | 1006.2 |
| 20260508030003 | 91 | 302 | 8.0 | 21.0 | 0.00 | 0.00 | 0.00 | 15 | 1006.2 |
| 20260508025502 | 91 | 293 | 12.0 | 25.0 | 0.00 | 0.00 | 0.00 | 15 | 1006.1 |
| 20260508025003 | 91 | 300 | 11.0 | 20.0 | 0.00 | 0.00 | 0.00 | 15 | 1006.2 |
| 20260508024503 | 92 | 304 | 11.0 | 24.0 | 0.00 | 0.00 | 0.00 | 16 | 1006.1 |
| 20260508024003 | 92 | 293 | 14.0 | 23.0 | 0.00 | 0.00 | 0.00 | 15 | 1006.1 |
| 20260508023003 | 92 | 294 | 12.0 | 24.0 | 0.00 | 0.00 | 0.00 | 15 | 1006.2 |
| 20260508022003 | 92 | 290 | 12.0 | 20.0 | 0.00 | 0.00 | 0.00 | 17 | 1006.0 |
| 20260508021502 | 93 | 296 | 13.0 | 22.0 | 0.00 | 0.00 | 0.00 | 17 | 1006.0 |
| 20260508021003 | 93 | 295 | 15.0 | 25.0 | 0.00 | 0.00 | 0.00 | 18 | 1005.9 |
| 20260508020003 | 94 | 292 | 10.0 | 22.0 | 0.00 | 0.00 | 0.00 | 17 | 1005.9 |
| 20260508015502 | 94 | 285 | 13.0 | 23.0 | 0.00 | 0.00 | 0.00 | 18 | 1005.9 |
| 20260508014502 | 94 | 311 | 15.0 | 24.0 | 0.00 | 0.00 | 0.00 | 17 | 1005.9 |
| 20260508014003 | 95 | 279 | 13.0 | 23.0 | 0.00 | 0.00 | 0.00 | 18 | 1005.9 |
| 20260508013502 | 95 | 279 | 13.0 | 22.0 | 0.00 | 0.00 | 0.00 | 18 | 1005.8 |
| 20260508013003 | 95 | 291 | 12.0 | 22.0 | 0.00 | 0.00 | 0.00 | 18 | 1005.8 |
| 20260508012503 | 95 | 292 | 13.0 | 20.0 | 0.00 | 0.00 | 0.00 | 18 | 1005.8 |
| 20260508012002 | 96 | 287 | 14.0 | 22.0 | 0.00 | 0.00 | 0.00 | 18 | 1005.8 |
| 20260508011503 | 96 | 289 | 12.0 | 20.0 | 0.00 | 0.00 | 0.00 | 18 | 1005.7 |
| 20260508011003 | 96 | 284 | 14.0 | 22.0 | 0.00 | 0.00 | 0.00 | 18 | 1005.6 |
| 20260508010003 | 97 | 296 | 15.0 | 23.0 | 0.00 | 0.00 | 0.00 | 17 | 1005.6 |
| 20260508004502 | 98 | 288 | 13.0 | 23.0 | 0.00 | 0.00 | 0.00 | 17 | 1005.5 |
| 20260508004003 | 98 | 288 | 10.0 | 20.0 | 0.00 | 0.00 | 0.00 | 17 | 1005.4 |
| 20260508003503 | 98 | 297 | 9.0 | 23.0 | 0.00 | 0.00 | 0.00 | 17 | 1005.4 |
| 20260508002503 | 99 | 291 | 10.0 | 20.0 | 0.00 | 0.00 | 0.00 | 16 | 1005.4 |
| 20260508002002 | 99 | 298 | 8.0 | 18.0 | 0.00 | 0.00 | 0.00 | 16 | 1005.4 |
| 20260508001503 | 99 | 288 | 8.0 | 21.0 | 0.00 | 0.00 | 0.00 | 15 | 1005.5 |
| 20260508001002 | 99 | 307 | 9.0 | 20.0 | 0.00 | 0.00 | 0.00 | 16 | 1005.5 |
| 20260508000503 | 100 | 299 | 13.0 | 20.0 | 0.00 | 0.00 | 0.00 | 16 | 1005.4 |
| 20260507235503 | 100 | 312 | 7.0 | 15.0 | 0.00 | 0.00 | 0.00 | 15 | 1005.6 |
| 20260507235003 | 100 | 282 | 9.0 | 17.0 | 0.00 | 0.00 | 0.00 | 15 | 1005.5 |
| 20260507234502 | 100 | 288 | 8.0 | 23.0 | 0.00 | 0.00 | 0.00 | 15 | 1005.5 |
| 20260507234003 | 100 | 283 | 7.0 | 13.0 | 0.00 | 0.00 | 0.00 | 15 | 1005.5 |
| 20260507233503 | 100 | 310 | 8.0 | 18.0 | 0.00 | 0.00 | 0.00 | 15 | 1005.6 |
| 20260507233003 | 101 | 262 | 5.0 | 18.0 | 0.00 | 0.00 | 0.00 | 15 | 1005.7 |
| 20260507232503 | 100 | 282 | 7.0 | 12.0 | 0.00 | 0.00 | 0.00 | 15 | 1005.7 |
| 20260507232002 | 101 | 310 | 8.0 | 15.0 | 0.00 | 0.00 | 0.00 | 15 | 1005.7 |
| 20260507231002 | 101 | 303 | 9.0 | 21.0 | 0.00 | 0.00 | 0.00 | 15 | 1005.7 |
| 20260507230003 | 101 | 313 | 3.0 | 10.0 | 0.00 | 0.00 | 0.00 | 14 | 1005.8 |
| 20260507224003 | 100 | 244 | 3.0 | 7.0 | 0.00 | 0.00 | 0.00 | 11 | 1006.0 |
| 20260507223503 | 101 | 193 | 3.0 | 7.0 | 0.00 | 0.00 | 0.00 | 11 | 1006.1 |
| 20260507223003 | 100 | 99 | 3.0 | 7.0 | 0.00 | 0.00 | 0.00 | 12 | 1006.1 |
| 20260507222003 | 101 | 177 | 3.0 | 6.0 | 0.00 | 0.00 | 0.00 | 11 | 1006.3 |
| 20260507221503 | 101 | 245 | 3.0 | 7.0 | 0.00 | 0.00 | 0.00 | 12 | 1006.3 |
| 20260507221003 | 101 | 306 | 2.0 | 5.0 | 0.00 | 0.00 | 0.00 | 14 | 1006.4 |
| 20260507220503 | 100 | 338 | 2.0 | 5.0 | 0.00 | 0.00 | 0.00 | 12 | 1006.5 |
| 20260507220003 | 100 | 124 | 0.0 | 2.0 | 0.00 | 0.00 | 0.00 | 10 | 1006.7 |
| 20260507215503 | 101 | 72 | 3.0 | 7.0 | 0.00 | 0.00 | 0.00 | 12 | 1006.8 |
| 20260507214503 | 101 | 330 | 3.0 | 8.0 | 0.00 | 0.00 | 0.00 | 13 | 1007.0 |
| 20260507214003 | 100 | 297 | 3.0 | 6.0 | 0.00 | 0.00 | 0.00 | 14 | 1007.1 |
| 20260507213502 | 100 | 340 | 4.0 | 8.0 | 0.00 | 0.00 | 0.00 | 14 | 1007.2 |
| 20260507213002 | 99 | 242 | 1.0 | 7.0 | 0.00 | 0.00 | 0.00 | 11 | 1007.4 |
| 20260507212503 | 99 | 198 | 1.0 | 6.0 | 0.00 | 0.00 | 0.00 | 13 | 1007.5 |
| 20260507212002 | 99 | 280 | 2.0 | 7.0 | 0.00 | 0.00 | 0.00 | 13 | 1007.5 |
| 20260507211503 | 99 | 19 | 2.0 | 8.0 | 0.00 | 0.00 | 0.00 | 11 | 1007.5 |
| 20260507211003 | 100 | 209 | 6.0 | 12.0 | 0.00 | 0.00 | 0.00 | 11 | 1007.6 |
| 20260507210502 | 99 | 221 | 5.0 | 9.0 | 0.00 | 0.00 | 0.00 | 11 | 1007.6 |
| 20260507210002 | 99 | 171 | 3.0 | 8.0 | 0.00 | 0.00 | 0.00 | 12 | 1007.8 |
| 20260507205503 | 100 | 147 | 3.0 | 8.0 | 0.00 | 0.00 | 0.00 | 12 | 1007.9 |
| 20260507205003 | 99 | 180 | 2.0 | 8.0 | 0.00 | 0.00 | 0.00 | 12 | 1008.0 |
| 20260507203502 | 98 | 182 | 3.0 | 7.0 | 0.00 | 0.00 | 0.00 | 12 | 1008.0 |
| 20260507203003 | 98 | 122 | 5.0 | 9.0 | 0.00 | 0.00 | 0.00 | 14 | 1008.1 |
| 20260507202502 | 99 | 122 | 5.0 | 9.0 | 0.00 | 0.00 | 0.00 | 15 | 1008.1 |
| 20260507202002 | 97 | 93 | 5.0 | 9.0 | 0.00 | 0.00 | 0.00 | 16 | 1008.2 |
| 20260507201502 | 98 | 161 | 5.0 | 10.0 | 0.00 | 0.00 | 0.00 | 15 | 1008.3 |
| 20260507201002 | 98 | 92 | 6.0 | 12.0 | 0.00 | 0.00 | 0.00 | 18 | 1008.5 |
| 20260507200503 | 97 | 104 | 7.0 | 12.0 | 0.00 | 0.00 | 0.00 | 18 | 1008.6 |
| 20260507200003 | 96 | 110 | 5.0 | 10.0 | 0.00 | 0.00 | 0.00 | 19 | 1008.6 |
| 20260507195002 | 97 | 92 | 5.0 | 10.0 | 0.00 | 0.00 | 0.00 | 18 | 1008.9 |
| 20260507194503 | 96 | 120 | 8.0 | 12.0 | 0.00 | 0.00 | 0.00 | 19 | 1009.0 |
| 20260507194003 | 95 | 111 | 5.0 | 8.0 | 0.00 | 0.00 | 0.00 | 18 | 1009.1 |
| 20260507193503 | 96 | 122 | 5.0 | 12.0 | 0.00 | 0.00 | 0.00 | 19 | 1009.1 |
| 20260507193003 | 95 | 99 | 6.0 | 12.0 | 0.00 | 0.00 | 0.00 | 20 | 1009.2 |
| 20260507192502 | 94 | 122 | 4.0 | 8.0 | 0.00 | 0.00 | 0.00 | 19 | 1009.3 |
| 20260507192002 | 95 | 76 | 5.0 | 9.0 | 0.00 | 0.00 | 0.00 | 19 | 1009.5 |
| 20260507191503 | 94 | 26 | 5.0 | 8.0 | 0.00 | 0.00 | 0.00 | 20 | 1009.6 |
| 20260507191003 | 94 | 77 | 4.0 | 8.0 | 0.00 | 0.00 | 0.00 | 20 | 1009.6 |
| 20260507190004 | 93 | 75 | 5.0 | 8.0 | 0.00 | 0.00 | 0.00 | 23 | 1009.8 |
| 20260507185502 | 92 | 124 | 4.0 | 9.0 | 0.00 | 0.00 | 0.00 | 21 | 1009.9 |
| 20260507185003 | 92 | 134 | 5.0 | 7.0 | 0.00 | 0.00 | 0.00 | 22 | 1010.0 |
| 20260507184504 | 92 | 162 | 4.0 | 7.0 | 0.00 | 0.00 | 0.00 | 23 | 1010.1 |
| 20260507183003 | 90 | 86 | 2.0 | 3.0 | 0.00 | 0.00 | 0.00 | 24 | 1010.2 |
| 20260507182003 | 91 | 107 | 4.0 | 7.0 | 0.00 | 0.00 | 0.00 | 22 | 1010.4 |
| 20260507181503 | 90 | 82 | 2.0 | 6.0 | 0.00 | 0.00 | 0.00 | 22 | 1010.5 |
| 20260507181003 | 90 | 156 | 2.0 | 7.0 | 0.00 | 0.00 | 0.00 | 23 | 1010.5 |
| 20260507180003 | 89 | 123 | 2.0 | 3.0 | 0.00 | 0.00 | 0.00 | 24 | 1010.7 |
| 20260507175503 | 89 | 192 | 2.0 | 3.0 | 0.00 | 0.00 | 0.00 | 27 | 1010.7 |
| 20260507174002 | 88 | 124 | 2.0 | 3.0 | 0.00 | 0.00 | 0.00 | 25 | 1010.7 |
| 20260507173003 | 86 | 232 | 0.0 | 3.0 | 0.00 | 0.00 | 0.00 | 26 | 1010.8 |
| 20260507172502 | 87 | 225 | 1.0 | 2.0 | 0.00 | 0.00 | 0.00 | 27 | 1010.8 |
| 20260507172003 | 86 | 219 | 2.0 | 3.0 | 0.00 | 0.00 | 0.00 | 28 | 1010.9 |
| 20260507171002 | 85 | 149 | 2.0 | 3.0 | 0.00 | 0.00 | 0.00 | 28 | 1011.0 |
| 20260507170503 | 85 | 214 | 2.0 | 3.0 | 0.00 | 0.00 | 0.00 | 29 | 1011.1 |
| 20260507170002 | 84 | 209 | 1.0 | 3.0 | 0.00 | 0.00 | 0.00 | 30 | 1011.1 |
| 20260507165003 | 83 | 207 | 3.0 | 3.0 | 0.00 | 0.00 | 0.00 | 29 | 1011.1 |
| 20260507164502 | 83 | 235 | 2.0 | 3.0 | 0.00 | 0.00 | 0.00 | 30 | 1011.2 |
| 20260507163503 | 83 | 188 | 2.0 | 3.0 | 0.00 | 0.00 | 0.00 | 31 | 1011.2 |
| 20260507163002 | 83 | 243 | 1.0 | 3.0 | 0.00 | 0.00 | 0.00 | 31 | 1011.2 |
| 20260507162503 | 82 | 243 | 2.0 | 3.0 | 0.00 | 0.00 | 0.00 | 30 | 1011.2 |
| 20260507162003 | 82 | 186 | 1.0 | 3.0 | 0.00 | 0.00 | 0.00 | 31 | 1011.2 |
| 20260507161503 | 82 | 175 | 3.0 | 5.0 | 0.00 | 0.00 | 0.00 | 31 | 1011.2 |
| 20260507161002 | 82 | 248 | 3.0 | 5.0 | 0.00 | 0.00 | 0.00 | 32 | 1011.2 |
| 20260507160502 | 81 | 324 | 1.0 | 3.0 | 0.00 | 0.00 | 0.00 | 32 | 1011.2 |
| 20260507160002 | 81 | 237 | 1.0 | 2.0 | 0.00 | 0.00 | 0.00 | 31 | 1011.2 |
| 20260507155503 | 81 | 237 | 1.0 | 2.0 | 0.00 | 0.00 | 0.00 | 32 | 1011.2 |
| 20260507155003 | 81 | 237 | 2.0 | 5.0 | 0.00 | 0.00 | 0.00 | 32 | 1011.3 |
| 20260507154502 | 80 | 282 | 2.0 | 5.0 | 0.00 | 0.00 | 0.00 | 32 | 1011.3 |
| 20260507154004 | 80 | 263 | 4.0 | 7.0 | 0.00 | 0.00 | 0.00 | 31 | 1011.3 |
| 20260507153503 | 80 | 256 | 5.0 | 7.0 | 0.00 | 0.00 | 0.00 | 33 | 1011.3 |
| 20260507153003 | 80 | 252 | 5.0 | 7.0 | 0.00 | 0.00 | 0.00 | 36 | 1011.3 |
| 20260507152003 | 79 | 265 | 2.0 | 7.0 | 0.00 | 0.00 | 0.00 | 36 | 1011.3 |
| 20260507151502 | 79 | 264 | 4.0 | 9.0 | 0.00 | 0.00 | 0.00 | 37 | 1011.3 |
| 20260507151003 | 78 | 254 | 4.0 | 10.0 | 0.00 | 0.00 | 0.00 | 36 | 1011.2 |
| 20260507150503 | 78 | 258 | 6.0 | 9.0 | 0.00 | 0.00 | 0.00 | 38 | 1011.2 |
| 20260507150004 | 77 | 272 | 4.0 | 9.0 | 0.00 | 0.00 | 0.00 | 37 | 1011.3 |
| 20260507145003 | 77 | 264 | 5.0 | 12.0 | 0.00 | 0.00 | 0.00 | 37 | 1011.3 |
| 20260507144502 | 77 | 235 | 5.0 | 9.0 | 0.00 | 0.00 | 0.00 | 37 | 1011.3 |
| 20260507144003 | 76 | 250 | 6.0 | 9.0 | 0.00 | 0.00 | 0.00 | 37 | 1011.3 |
| 20260507143503 | 76 | 254 | 5.0 | 10.0 | 0.00 | 0.00 | 0.00 | 37 | 1011.3 |
| 20260507142502 | 75 | 244 | 4.0 | 10.0 | 0.00 | 0.00 | 0.00 | 38 | 1011.1 |
| 20260507142003 | 75 | 250 | 3.0 | 8.0 | 0.00 | 0.00 | 0.00 | 38 | 1011.1 |
| 20260507141502 | 75 | 252 | 4.0 | 9.0 | 0.00 | 0.00 | 0.00 | 38 | 1011.1 |
| 20260507141003 | 75 | 250 | 5.0 | 10.0 | 0.00 | 0.00 | 0.00 | 38 | 1011.1 |
| 20260507140502 | 74 | 240 | 4.0 | 8.0 | 0.00 | 0.00 | 0.00 | 38 | 1011.0 |
| 20260507140002 | 74 | 241 | 5.0 | 8.0 | 0.00 | 0.00 | 0.00 | 39 | 1010.9 |
| 20260507135503 | 74 | 251 | 6.0 | 10.0 | 0.00 | 0.00 | 0.00 | 40 | 1010.9 |
| 20260507135003 | 74 | 249 | 6.0 | 7.0 | 0.00 | 0.00 | 0.00 | 39 | 1010.9 |
| 20260507134503 | 74 | 247 | 6.0 | 12.0 | 0.00 | 0.00 | 0.00 | 39 | 1010.8 |
| 20260507133502 | 74 | 254 | 5.0 | 12.0 | 0.00 | 0.00 | 0.00 | 40 | 1010.7 |
| 20260507133002 | 74 | 268 | 6.0 | 12.0 | 0.00 | 0.00 | 0.00 | 40 | 1010.7 |
| 20260507132503 | 74 | 268 | 7.0 | 12.0 | 0.00 | 0.00 | 0.00 | 40 | 1010.6 |
| 20260507132002 | 74 | 264 | 5.0 | 8.0 | 0.00 | 0.00 | 0.00 | 40 | 1010.6 |
| 20260507131503 | 74 | 266 | 6.0 | 9.0 | 0.00 | 0.00 | 0.00 | 40 | 1010.6 |
| 20260507131003 | 75 | 255 | 6.0 | 12.0 | 0.00 | 0.00 | 0.00 | 39 | 1010.5 |